Regional Weather Roundup
Issued by NWS

Home | Current Version | Previous Version | Graphics & Text | Print | Product List | Glossary On
Versions: 1 2 3 4 5 6 7 8 9 10 11 12 13 14 15 16 17 18 19 20 21 22 23 24 25 26 27 28 29 30 31 32 33 34 35 36 37 38 39 40 41 42 43 44 45 46 47 48 49 50
000
ASUS43 KDTX 282110
RWRMI
MICHIGAN HOURLY REGIONAL WEATHER ROUNDUP
NATIONAL WEATHER SERVICE DETROIT/PONTIAC MI
500 PM EDT WED SEP 28 2016

NOTE: "FAIR" INDICATES FEW OR NO CLOUDS BELOW 12,000 FEET WITH NO
SIGNIFICANT WEATHER AND/OR OBSTRUCTION TO VISIBILITY.

MIZ047>049-052>055-059>063-066>070-074>076-081>083-282200-
SOUTHEAST LOWER MICHIGAN

CITY           SKY/WX    TMP DP  RH WIND       PRES   REMARKS
ADRIAN         CLOUDY    59  55  87 E10       29.92R
ALMA           LGT RAIN  59  57  92 N8G16     30.00R
ANN ARBOR      CLOUDY    58  56  93 NE9       29.94R
BAD AXE        PTSUNNY   62  57  82 NE10      30.00S
CARO           MOSUNNY   64  56  74 NE6       29.98R
DETROIT CITY   LGT RAIN  60  59  96 CALM      29.95R
DETROIT        CLOUDY    60  56  86 NE5       29.94S
FLINT          CLOUDY    61  53  75 NE5       29.97R
GROSSE ILE     CLOUDY    60  57  92 NE6       29.93R
HILLSDALE      CLOUDY    54  50  87 NE5       29.92R
HOWELL         CLOUDY    58  55  91 E8        29.96R

CITY           SKY/WX    TMP DP  RH WIND       PRES   REMARKS
JACKSON        CLOUDY    56  55  97 NE6       29.94R
LAMBERTVILLE   CLOUDY    62  54  76 E6        29.91S
LANSING        CLOUDY    57  50  77 NE9       29.97R
LAPEER         FAIR      64  55  71 N3        29.97S
MASON          CLOUDY    56  53  88 NE9G16    29.95R
MONROE         CLOUDY    62  56  83 SE6       29.92R
MT. CLEMENS    CLOUDY    66  55  68 NE3       29.94R
PONTIAC        CLOUDY    60  54  80 VRB5      29.96R
PORT HURON     CLOUDY    66  57  72 N7        29.96R
TRI CITIES     LGT RAIN  61  58  90 NE8       30.01R
MIDLAND        CLOUDY    59  56  88 N8        30.01R
TROY           LGT RAIN  62  56  81 CALM      29.98R
SAGINAW HB     CLOUDY    61  55  82 N6        29.99R
$$
MIZ043>046-050>051-056>058-064>065-071>073-077>080-282200-
SOUTHWEST LOWER MICHIGAN

CITY           SKY/WX    TMP DP  RH WIND       PRES   REMARKS
BATTLE CREEK   CLOUDY    58  50  75 NE8       29.95R
BENTON HARBOR  CLOUDY    63  51  65 NE5       29.94R
BIG RAPIDS     CLOUDY    65  47  50 NE7       30.01R
COLDWATER      CLOUDY    56  50  80 NE13G20   29.93R
FREMONT        LGT RAIN  62  47  58 E10       30.00R
HOLLAND        LGT RAIN  58  52  80 N5        29.97R
GRAND RAPIDS   CLOUDY    58  49  72 N14       29.97R
IONIA          CLOUDY    57  49  74 NE6       29.97R
KALAMAZOO      CLOUDY    58  45  62 NE9G21    29.96R
LUDINGTON      CLOUDY    66  50  56 N8        30.03R
MARSHALL       DRIZZLE   55  54  97 CALM      29.94R
MOUNT PLEASANT DRIZZLE   59  57  91 N7        30.01F
MUSKEGON       CLOUDY    64  48  56 NE10      30.00R
SOUTH HAVEN    RAIN      61  55  79 NE3       29.95R
$$
MIZ016>042-282200-
NORTHERN LOWER MICHIGAN

CITY           SKY/WX    TMP DP  RH WIND       PRES   REMARKS
ALPENA         PTSUNNY   66  53  63 NE14      30.10R
BEAVER ISLAND  SUNNY     63  53  69 NE8       30.14R
BELLAIRE       SUNNY     67  50  56 N9        30.09R
CADILLAC       PTSUNNY   65  47  53 NE10G23   30.05R
CHARLEVOIX     MOSUNNY   66  51  57 NE9       30.14R
FRANKFORT      SUNNY     65  52  61 N8        30.08R
GAYLORD        MOSUNNY   66  49  54 NE14G21   30.10R
GRAYLING       CLOUDY    63  53  68 NE8       30.08R
HARBOR SPRINGS SUNNY     65  51  60 NE13      30.12R
HOUGHTON LAKE  CLOUDY    61  48  62 NE12      30.07R
MANISTEE       MOSUNNY   67  49  52 NE13      30.05R
OSCODA         CLOUDY    64  58  78 NE9       30.04R
PELLSTON       PTSUNNY   66  46  48 E12       30.13R
ROGERS CITY    SUNNY     65  56  73 N8        30.12S
TRAVERSE CITY  MOSUNNY   68  50  52 N12       30.06R
$$
MIZ007>008-015-282200-
EASTERN UPPER MICHIGAN

CITY           SKY/WX    TMP DP  RH WIND       PRES   REMARKS
KINROSS        SUNNY     66  49  54 E7        30.15R
MACKINAC ISLAN SUNNY     62  53  72 E3        30.13R
NEWBERRY       MOSUNNY   63  54  72 NE6       30.15R
S. S. MARIE    SUNNY     69  49  48 N5        30.14R
MUNISING         N/A     61  55  81 N15       30.17R
$$
MIZ004>006-011>014-085-282200-
CENTRAL UPPER MICHIGAN

CITY           SKY/WX    TMP DP  RH WIND       PRES   REMARKS
MANISTIQUE     MOSUNNY   65  52  62 NE8       30.14R
ESCANABA       SUNNY     64  51  62 NE13      30.14R
MENOMINEE        N/A    N/A N/A N/A MISG        N/A
SAWYER-GWINN   PTSUNNY   57  50  77 NE16      30.18R
$$
MIZ001>003-009>011-084-282200-
WESTERN UPPER MICHIGAN

CITY           SKY/WX    TMP DP  RH WIND       PRES   REMARKS
IRON MOUNTAIN  PTSUNNY   62  50  64 N12       30.16R
HOUGHTON       CLOUDY    58  49  72 NE8       30.23R
COPPER HARBOR    N/A     58  53  84 E14       30.23R
IRONWOOD       PTSUNNY   57  54  89 N9G16     30.24R
$$

ABBREVIATIONS USED IN REMARKS
   TC - TEMPERATURE IN CELSIUS
  WCI - WIND CHILL INDEX
   HX - HEAT INDEX
  VSB - VISIBILITY





USA.gov is the U.S. government's official web portal to all federal, state and local government web resources and services.